GEFSSGP_con_prob3kmehi_072.txt.gz
EHI
13 7 2 0 0 0 0 0 0 1 2 4 9 16 20 18 10 4 2 18 48 57 44 44 54 52 38 26 17 9 2 0 0 0 0 0 0 0 0 0 0 0 0 0 0 0 0 0 0
7 4 1 0 0 0 0 0 0 2 5 7 10 16 21 21 15 6 4 21 48 55 43 45 56 55 45 33 24 14 6 2 1 0 0 0 0 0 0 0 0 0 0 0 0 0 0 0 0
1 0 0 0 0 0 0 0 1 3 6 9 12 15 16 16 11 5 6 21 40 45 40 47 59 61 54 45 35 24 12 5 2 1 0 0 0 0 0 0 0 0 0 0 0 0 0 0 0
0 0 0 0 0 0 0 0 1 3 6 11 14 13 11 10 8 4 6 19 33 35 34 44 58 62 57 51 43 31 19 9 4 1 0 0 0 0 0 0 0 0 0 0 0 0 0 0 0
0 0 0 0 0 1 1 2 3 5 7 10 13 13 12 14 14 8 6 15 26 28 27 34 47 53 51 47 41 33 23 12 5 1 0 0 0 0 0 0 0 0 0 0 0 0 0 0 0
0 0 0 0 0 0 1 5 8 10 10 8 7 10 13 18 18 11 6 8 13 17 17 20 29 35 36 35 32 28 19 11 5 1 0 0 0 0 0 0 0 0 0 0 0 0 0 0 0
0 0 0 0 0 0 2 7 12 14 12 6 3 7 12 19 21 17 9 5 5 6 7 9 12 17 19 20 20 18 12 7 5 2 0 0 0 0 1 1 1 1 0 0 0 0 0 0 0
0 0 0 0 0 2 5 9 13 15 12 7 5 7 13 23 32 31 18 7 2 1 2 3 5 6 7 8 10 9 7 7 5 3 1 0 0 0 1 2 2 2 1 1 1 1 1 0 0
0 0 0 0 0 3 8 10 10 11 12 11 10 11 18 33 47 46 30 14 6 2 1 2 3 3 3 4 4 4 5 5 4 2 1 0 0 0 1 2 3 4 3 2 2 1 1 0 0
0 0 0 1 2 5 8 9 7 7 9 11 13 16 24 38 51 49 35 21 12 7 3 3 3 2 1 2 2 2 2 2 2 1 0 0 0 0 0 1 3 4 4 3 2 1 0 0 0
0 0 0 1 4 5 6 7 6 5 6 8 12 16 23 32 40 41 36 31 25 19 14 9 5 2 1 1 1 1 1 1 0 0 0 0 0 0 0 0 1 2 1 1 1 0 0 0 0
0 0 0 1 2 3 4 5 6 5 4 6 9 14 18 23 30 35 40 44 45 42 32 21 13 8 4 3 2 1 1 1 0 0 0 0 0 0 0 0 0 0 0 0 0 0 0 0 0
0 0 1 1 0 2 4 6 6 5 5 6 8 11 14 20 28 37 45 54 61 61 49 33 22 15 9 6 3 2 2 2 1 1 0 0 0 0 0 0 0 0 0 0 0 0 0 0 0
0 0 1 1 0 2 5 7 6 5 5 7 9 12 15 22 32 42 50 58 65 65 52 35 24 16 10 6 3 2 2 1 1 1 1 1 0 0 0 0 0 0 0 0 0 0 0 0 0
0 0 1 1 0 2 5 7 6 3 3 6 12 15 18 25 36 47 55 59 60 56 44 29 19 13 8 4 2 1 1 0 1 1 1 1 0 0 0 0 0 0 0 0 0 0 0 0 0
0 0 0 0 0 1 4 5 4 2 2 6 11 16 19 25 35 45 54 55 49 41 32 22 13 8 5 2 0 0 0 0 0 0 1 1 0 0 0 0 0 0 0 0 0 0 0 0 0
0 0 0 0 1 2 3 4 4 4 5 7 10 15 20 24 30 39 46 44 34 26 21 15 9 4 2 0 0 0 0 0 0 0 0 0 0 0 0 0 0 0 0 0 0 0 0 0 0
0 0 0 0 1 2 2 3 4 6 9 10 12 14 18 21 25 30 34 30 20 14 12 10 6 3 1 0 0 0 0 0 0 0 0 0 0 0 0 0 0 0 0 0 0 0 0 0 0
0 0 0 0 0 1 1 1 4 7 10 13 14 13 14 16 19 22 23 18 12 8 7 7 4 2 1 0 0 0 0 0 0 0 0 0 0 0 0 0 0 0 0 0 0 0 0 0 0
0 0 0 0 0 0 0 1 4 7 9 11 13 13 11 13 16 17 14 10 7 5 5 4 3 1 0 0 0 0 0 0 0 0 0 0 0 0 0 0 0 0 0 0 0 0 0 0 0
0 0 0 0 0 0 0 1 3 5 7 9 11 12 11 12 15 15 10 6 4 4 3 2 1 0 0 0 0 0 0 0 0 0 0 0 0 0 0 0 0 0 0 0 0 0 0 0 0
0 0 0 0 0 0 0 1 2 4 6 8 9 10 11 11 14 13 9 5 4 4 3 1 1 0 0 0 0 0 0 0 0 0 0 0 0 0 0 0 0 0 0 0 0 0 0 0 0
0 0 0 0 0 0 0 0 1 3 5 6 6 8 9 10 12 13 10 6 5 6 5 3 2 1 0 0 0 0 0 0 0 0 0 0 0 0 0 0 0 0 0 0 0 0 0 0 0
0 0 0 0 0 0 0 0 1 2 3 3 4 6 8 11 14 15 11 6 5 7 8 8 5 2 1 1 0 0 0 0 0 0 0 0 0 0 0 0 0 0 0 0 0 0 0 0 0
0 0 0 0 0 0 0 0 0 1 1 1 3 6 8 11 15 15 10 5 5 9 12 12 9 4 2 2 1 0 0 0 0 0 0 0 0 0 0 0 0 0 0 0 0 0 0 0 0
0 0 0 0 0 0 0 0 0 0 0 1 3 5 7 11 14 13 8 5 8 14 16 16 13 8 4 3 1 0 0 0 0 0 0 0 0 0 0 0 0 0 0 0 0 0 0 0 0
0 0 0 0 0 0 0 0 0 0 0 0 1 3 5 7 9 8 6 6 12 18 18 17 15 11 6 3 1 0 0 0 0 0 0 0 0 0 0 0 0 0 0 0 0 0 0 0 0
0 0 0 0 0 0 0 0 0 0 0 0 0 1 2 3 4 4 4 8 13 16 17 16 15 10 6 4 2 1 0 0 0 0 0 0 0 0 0 0 0 0 0 0 0 0 0 0 0
0 0 0 0 0 0 0 0 0 0 0 0 0 0 0 1 1 1 4 7 11 14 16 15 12 8 5 4 2 1 0 0 0 0 0 0 0 0 0 0 0 0 0 0 0 0 0 0 0
0 0 0 0 0 0 0 0 0 0 0 0 0 0 0 0 0 1 3 6 9 13 15 14 10 6 5 4 2 0 0 0 0 0 0 0 0 0 0 0 0 0 0 0 0 0 0 0 0

GEFSSGP_con_prob3kmehi_078.txt.gz
EHI
0 0 0 0 0 0 0 0 0 0 0 1 1 1 0 0 0 1 1 4 10 13 8 10 22 39 52 58 57 47 33 23 18 11 5 1 0 0 0 0 0 0 0 0 0 0 0 0 0
0 0 0 0 0 0 0 0 0 1 1 0 0 0 0 0 1 2 2 4 10 12 8 11 25 40 50 55 53 46 33 22 14 8 3 0 0 0 0 0 0 0 0 0 0 0 0 0 0
0 0 0 0 0 0 0 0 0 1 1 0 0 0 0 0 1 1 2 5 10 12 9 16 34 46 50 51 51 45 32 17 8 4 2 0 0 0 0 0 0 0 0 0 0 0 0 0 0
0 0 0 0 0 0 0 0 0 1 1 0 0 1 1 1 1 1 3 7 12 14 15 25 43 54 54 52 50 45 31 15 7 4 2 0 0 0 0 0 0 0 0 0 0 0 0 0 0
0 0 0 0 0 0 0 0 0 0 0 0 1 1 3 4 3 4 6 9 14 21 25 33 46 55 56 54 50 42 29 16 10 6 3 0 0 0 0 0 0 0 0 0 0 0 0 0 0
0 0 0 0 0 0 0 0 0 1 0 0 0 1 3 4 6 6 8 11 18 28 33 35 39 45 49 50 46 37 26 17 11 6 2 1 1 1 1 1 1 0 0 0 0 0 0 0 0
0 0 0 0 0 0 0 0 0 0 0 0 1 1 1 3 6 8 10 14 21 27 30 30 29 30 34 38 39 33 25 18 11 4 2 2 2 2 2 2 1 0 0 0 0 0 0 0 0
0 0 0 0 0 0 0 0 0 0 1 2 3 2 2 4 7 9 12 15 16 17 18 19 21 21 21 24 28 27 22 16 10 4 1 2 1 1 2 2 1 0 0 0 0 0 0 0 0
0 0 0 0 0 1 3 3 2 2 2 3 4 6 8 11 11 10 12 10 6 5 5 7 11 14 15 15 15 15 13 10 6 2 1 1 0 0 1 2 2 2 1 1 2 1 1 1 0
0 0 0 0 0 2 5 6 4 5 4 4 8 13 20 21 15 11 8 5 1 0 1 2 4 8 9 8 6 5 4 3 1 0 0 0 0 0 0 2 3 3 2 2 2 2 2 1 1
0 0 0 0 0 2 5 6 6 6 3 4 10 20 29 27 18 10 5 2 0 1 1 1 2 3 4 4 3 3 1 0 0 0 0 0 0 0 0 1 2 2 1 1 1 2 1 1 0
0 0 0 0 0 2 4 6 5 4 3 5 12 21 26 24 17 9 3 1 0 1 2 1 1 1 1 3 3 2 1 0 0 0 0 0 0 0 0 0 0 0 0 0 0 0 0 0 0
0 0 0 0 0 2 5 5 3 1 3 8 14 17 18 18 15 9 4 2 2 1 1 0 0 0 1 2 2 1 0 0 0 0 0 0 0 0 0 0 0 0 0 0 0 0 0 0 0
0 0 0 0 0 2 3 3 1 1 4 11 14 15 15 16 14 10 7 6 4 2 0 0 0 0 0 1 1 0 0 0 0 0 0 0 0 0 0 0 0 0 0 0 0 0 0 0 0
0 0 0 0 0 1 2 1 0 1 5 9 11 13 14 13 11 11 12 10 6 3 1 1 0 0 0 0 0 0 0 0 0 0 0 0 0 0 0 0 0 0 0 0 0 0 0 0 0
0 0 0 0 0 1 1 0 0 2 5 6 7 9 10 9 8 10 14 14 9 4 3 2 1 0 0 0 0 0 0 0 0 0 0 0 0 0 0 0 0 0 0 0 0 0 0 0 0
0 0 0 0 0 0 0 0 1 2 4 5 5 5 6 6 6 9 15 15 9 4 3 3 2 1 0 0 0 0 0 0 0 0 0 0 0 0 0 0 0 0 0 0 0 0 0 0 0
0 0 0 0 1 1 1 0 1 3 5 6 5 5 5 6 7 11 15 14 9 5 4 3 2 1 0 0 0 0 0 0 0 0 0 0 0 0 0 0 0 0 0 0 0 0 0 0 0
0 0 0 0 1 2 1 0 1 3 6 7 6 6 6 6 8 11 12 12 9 5 4 3 2 1 0 0 0 0 0 0 0 0 0 0 0 0 0 0 0 0 0 0 0 0 0 0 0
0 0 0 0 1 1 1 0 0 2 5 6 6 6 6 8 10 10 10 10 8 5 4 3 1 0 0 0 0 0 0 0 0 0 0 0 0 0 0 0 0 0 0 0 0 0 0 0 0
0 0 0 0 0 0 0 0 0 1 2 3 4 4 6 9 11 10 8 8 6 4 3 2 1 0 0 0 0 0 0 0 0 0 0 0 0 0 0 0 0 0 0 0 0 0 0 0 0
0 0 0 0 0 0 0 0 0 0 0 1 3 4 5 8 11 9 7 5 4 3 3 1 0 0 0 0 0 0 0 0 0 0 0 0 0 0 0 0 0 0 0 0 0 0 0 0 0
0 0 0 0 0 0 0 0 0 0 0 1 3 5 6 7 9 8 6 4 3 3 2 1 0 0 0 0 0 0 0 0 0 0 0 0 0 0 0 0 0 0 0 0 0 0 0 0 0
0 0 0 0 0 0 0 0 0 0 0 0 2 5 6 6 8 8 7 4 3 3 2 1 0 0 0 0 0 0 0 0 0 0 0 0 0 0 0 0 0 0 0 0 0 0 0 0 0
0 0 0 0 0 0 0 0 0 0 0 0 1 3 4 5 6 8 7 4 3 1 1 0 0 0 0 0 0 0 0 0 0 0 0 0 0 0 0 0 0 0 0 0 0 0 0 0 0
0 0 0 0 0 0 0 0 0 0 0 0 0 1 3 3 4 5 4 3 2 1 0 0 0 0 0 0 0 0 0 0 0 0 0 0 0 0 0 0 0 0 0 0 0 0 0 0 0
0 0 0 0 0 0 0 0 0 0 0 0 0 1 2 2 3 3 2 1 1 0 0 0 0 0 0 0 0 0 0 0 0 0 0 0 0 0 0 0 0 0 0 0 0 0 0 0 0
0 0 0 0 0 0 0 0 0 0 0 0 0 0 1 1 1 1 1 0 0 0 0 0 0 0 0 0 0 0 0 0 0 0 0 0 0 0 0 0 0 0 0 0 0 0 0 0 0
0 0 0 0 0 0 0 0 0 0 0 0 0 0 0 0 0 0 0 0 0 0 0 0 0 0 0 0 1 1 1 0 0 0 0 0 0 0 0 0 0 0 0 0 0 0 0 0 0
0 0 0 0 0 0 0 0 0 0 0 0 0 0 0 0 0 0 0 0 0 0 0 0 0 0 0 1 2 2 1 0 0 0 0 0 0 0 0 0 0 0 0 0 0 0 0 0 0

GEFSSGP_con_prob3kmehi_084.txt.gz
EHI
0 0 0 0 0 0 0 0 0 0 1 1 0 0 0 1 1 1 0 0 0 0 0 1 3 5 7 10 16 19 17 13 10 5 1 0 0 0 0 0 0 0 0 0 0 0 0 0 0
0 0 0 0 0 0 0 0 0 0 1 2 1 1 1 2 2 2 1 0 0 0 0 1 4 5 5 8 13 15 13 11 7 3 0 0 0 0 0 0 0 0 0 0 0 0 0 0 0
0 0 0 0 0 0 0 0 0 0 1 2 2 2 3 4 3 2 2 1 0 0 0 2 4 5 6 9 12 12 9 8 4 1 0 0 0 0 0 0 0 0 0 0 0 0 0 0 0
0 0 0 0 0 0 0 1 1 1 1 2 2 3 4 5 5 4 3 1 0 0 0 2 5 7 9 12 14 12 8 5 3 1 0 0 0 0 0 0 0 0 0 0 0 0 0 0 0
0 0 0 0 0 0 0 1 2 2 1 1 1 3 7 10 9 7 3 1 0 0 0 2 5 8 10 13 13 12 8 5 3 1 0 0 0 0 0 0 0 0 0 0 0 0 1 1 1
0 0 0 0 0 0 0 1 1 1 1 1 0 4 12 17 15 9 3 0 0 0 0 0 2 5 8 11 11 10 7 6 4 3 2 1 0 0 1 0 0 0 0 0 0 0 1 1 1
0 0 0 0 0 0 0 0 0 1 1 1 1 6 16 24 20 11 4 1 0 0 0 0 0 1 4 7 8 8 8 8 6 4 2 1 0 0 0 0 0 0 0 0 1 0 0 0 0
0 0 0 0 0 0 0 0 0 0 1 2 4 8 20 30 27 16 8 3 0 0 0 0 0 0 1 2 4 6 8 7 4 2 1 0 0 0 0 0 0 0 0 0 1 0 0 0 0
0 0 0 0 0 0 0 0 0 0 0 2 5 13 27 38 33 22 13 6 2 1 0 1 1 0 0 0 1 3 4 3 1 0 0 0 0 0 0 0 0 0 0 1 1 0 0 0 1
0 0 0 0 0 0 0 0 0 0 0 1 6 18 33 39 33 22 13 7 3 2 1 1 1 0 0 0 0 0 1 0 0 0 0 0 0 0 0 1 1 0 0 1 1 0 0 1 2
0 0 0 0 0 0 0 0 0 0 0 2 8 20 32 34 26 18 11 7 4 2 2 2 2 1 0 0 0 0 0 0 0 0 0 0 0 0 2 2 2 0 0 0 1 1 1 2 2
0 0 0 0 0 0 0 0 0 0 1 4 10 18 26 27 21 14 11 7 6 4 3 3 3 3 2 2 1 0 1 1 0 0 0 1 1 1 3 4 2 0 0 0 1 2 2 1 1
0 0 0 0 0 0 0 0 0 1 3 7 12 16 21 21 18 15 12 10 8 6 5 6 7 7 7 6 4 2 2 1 0 0 1 2 2 1 2 2 2 0 0 0 1 1 1 0 0
0 0 0 0 0 0 0 0 0 1 5 8 11 14 15 14 14 16 14 11 10 8 7 9 11 11 9 7 5 3 2 1 1 1 2 2 2 1 1 1 1 0 0 0 0 0 1 1 0
0 0 0 0 0 0 0 0 1 2 6 9 11 12 13 11 11 13 14 13 14 12 10 10 11 11 8 5 4 3 1 0 1 1 2 1 1 1 0 0 0 0 0 0 0 0 1 1 1
0 0 0 0 0 0 0 0 2 4 7 10 12 14 14 10 9 10 12 15 17 16 12 9 9 9 7 5 3 2 1 0 0 1 1 0 0 0 0 0 0 0 0 0 0 0 1 1 0
0 0 0 0 0 0 0 0 2 4 7 10 14 17 16 12 9 9 11 14 17 17 14 13 13 14 11 7 4 2 1 0 0 0 0 0 0 0 0 0 0 0 0 0 0 0 0 0 0
0 0 0 0 0 0 0 0 1 3 4 7 12 17 16 13 11 10 11 13 16 18 19 20 21 20 15 10 6 2 0 0 0 0 0 0 0 0 0 0 0 0 0 0 0 0 0 0 0
0 0 0 0 0 0 0 0 1 2 3 6 10 14 14 11 11 13 13 15 18 20 23 25 24 19 13 11 8 3 0 0 0 0 0 0 0 0 0 0 0 0 0 0 0 0 0 0 0
0 0 0 0 0 0 0 0 1 2 3 4 7 10 10 9 10 13 15 15 16 18 22 24 21 14 10 10 7 3 0 0 0 0 0 0 0 0 0 0 0 0 0 0 0 0 0 0 0
0 0 0 0 0 0 0 0 1 2 3 3 4 6 7 8 9 11 13 12 12 15 18 19 18 14 11 10 6 2 0 0 0 0 0 0 0 0 0 0 0 0 0 0 0 0 0 0 0
0 0 0 0 0 0 0 0 1 2 3 2 2 4 6 7 8 9 10 11 12 13 14 14 14 14 13 11 6 2 0 0 0 0 0 0 0 0 0 0 0 0 0 0 0 0 0 0 0
0 0 0 0 0 0 0 0 1 1 2 2 1 3 6 7 7 8 9 11 12 12 12 12 13 13 12 9 6 3 2 0 0 0 0 0 0 0 0 0 0 0 0 0 0 0 0 0 0
0 0 0 0 0 0 0 0 0 0 0 0 0 2 5 8 9 10 11 12 12 12 11 12 13 12 10 7 6 5 3 1 0 0 0 0 0 0 0 0 0 0 0 0 0 0 0 0 0
0 0 0 0 0 0 0 0 0 0 0 0 0 1 4 7 9 12 14 15 15 14 13 12 12 11 8 6 6 6 5 2 0 0 0 0 0 0 0 0 0 0 0 0 0 0 0 0 0
0 0 0 0 0 0 0 0 0 0 0 0 0 1 2 4 7 10 13 14 15 16 14 12 10 9 7 6 7 9 7 3 0 0 0 0 0 0 0 0 0 0 0 0 0 0 0 0 0
0 0 0 0 0 0 0 0 0 0 0 0 1 1 1 3 6 7 8 9 11 13 12 11 9 8 8 10 12 12 9 5 1 0 0 0 0 0 0 0 0 0 0 0 0 0 0 0 0
0 0 0 0 0 0 0 0 0 0 0 0 1 1 1 3 5 5 5 6 8 9 9 10 9 10 12 15 16 15 11 7 3 2 0 0 0 0 0 0 0 0 0 0 0 0 0 0 0
0 0 0 0 0 0 0 0 0 0 0 0 0 0 1 2 3 3 3 4 5 8 10 10 11 13 17 21 24 23 18 12 7 4 1 0 0 0 0 0 0 0 0 0 0 0 0 0 0
0 0 0 0 0 0 0 0 0 0 0 0 0 0 0 1 2 2 2 2 5 9 12 12 12 16 22 27 32 32 26 18 11 5 1 1 1 1 0 0 0 0 0 0 0 0 0 0 0

GEFSSGP_con_prob3kmehi_090.txt.gz
EHI
1 5 12 11 6 3 1 0 1 3 3 1 0 1 5 8 6 3 10 30 49 45 34 36 33 20 9 3 1 0 0 0 0 0 0 0 0 0 0 0 0 0 0 0 0 0 0 0 0
1 4 8 8 5 2 1 1 3 6 5 1 0 2 8 12 8 5 12 31 41 33 25 29 31 21 8 2 1 0 0 0 0 0 0 0 0 0 0 0 0 0 0 0 0 0 0 0 0
1 2 3 4 3 1 0 1 3 5 5 1 1 6 13 14 11 8 12 24 29 24 20 25 29 20 8 2 1 1 0 0 0 0 0 0 0 0 0 0 0 0 0 0 0 0 0 0 0
2 1 2 2 1 0 0 1 2 3 3 2 6 17 21 18 14 10 9 15 22 22 19 22 25 19 9 4 2 1 0 0 0 0 0 0 0 0 0 0 0 0 0 0 0 0 0 0 0
4 2 2 1 0 0 0 0 1 2 1 2 12 27 29 21 15 10 6 9 17 19 16 17 21 18 10 4 2 1 0 0 0 0 0 0 0 0 0 0 0 0 0 0 0 0 0 0 0
3 1 1 1 0 0 0 0 0 1 2 3 13 28 28 19 14 8 3 5 14 21 17 13 14 12 7 3 1 0 0 0 0 0 0 0 0 0 0 0 0 0 0 0 0 0 0 0 0
1 0 0 0 0 0 0 0 0 1 3 4 11 22 25 21 16 9 5 9 21 26 17 8 5 4 3 1 0 0 0 0 0 0 0 0 0 0 0 0 0 0 0 0 0 0 0 0 0
0 0 0 0 0 0 0 0 0 1 3 5 10 21 31 29 20 12 12 21 33 33 18 4 0 0 1 1 0 0 0 0 0 0 0 0 0 0 0 0 0 0 0 0 0 0 0 0 0
0 0 0 0 0 0 0 0 0 1 3 9 19 33 42 37 25 19 21 33 43 38 21 9 4 1 1 1 1 0 0 0 0 0 0 0 0 0 0 0 0 0 0 0 0 0 0 0 0
0 0 0 0 0 0 0 0 0 0 4 18 36 50 50 39 28 25 28 36 42 37 27 21 14 6 5 5 3 0 0 0 0 0 0 0 0 0 1 1 0 0 0 0 0 0 0 0 0
0 0 0 0 0 0 0 0 0 0 6 24 46 59 56 41 31 29 29 33 37 36 33 33 29 22 20 17 9 3 1 1 1 1 2 2 1 1 2 2 1 0 0 0 0 0 0 0 1
0 0 0 0 0 0 0 0 1 3 8 23 43 57 59 49 38 32 30 34 41 43 42 44 47 50 47 35 19 9 7 5 5 5 5 3 3 4 5 5 4 2 1 1 1 0 0 1 2
0 0 0 0 0 0 0 0 2 7 12 21 35 50 56 52 44 37 36 43 51 53 54 59 65 70 65 50 31 20 16 12 10 8 6 4 4 6 7 8 7 4 2 2 2 1 1 1 2
0 0 0 0 0 0 0 0 3 9 15 19 28 39 48 50 47 44 45 52 59 63 66 70 72 71 63 50 37 25 17 13 11 9 5 3 4 4 5 6 6 5 3 2 2 2 1 0 1
0 0 0 0 0 0 0 1 5 12 16 19 24 33 43 47 47 49 51 57 65 70 70 66 63 60 52 41 32 20 12 9 9 6 2 1 1 1 2 3 2 2 2 1 1 1 1 1 0
0 0 0 0 0 0 0 3 11 18 20 21 24 31 40 44 45 50 55 59 66 71 68 58 50 49 45 36 26 17 12 10 6 3 1 0 0 0 0 1 1 0 0 0 0 0 1 2 1
0 0 0 0 0 0 0 5 15 23 24 22 25 33 39 42 43 50 56 58 62 67 64 56 50 47 42 34 26 22 19 12 6 4 3 1 0 0 0 0 0 0 0 0 0 0 1 1 1
0 0 0 0 0 0 0 5 15 21 22 24 30 37 41 42 43 50 56 56 59 62 62 60 56 50 43 35 30 26 19 12 8 7 6 2 0 0 0 0 0 0 0 0 0 0 0 0 0
0 0 0 0 0 0 1 5 12 16 17 24 34 40 42 42 43 49 55 56 58 60 62 61 57 51 43 36 29 23 16 11 10 10 8 4 1 0 0 0 0 0 0 0 0 0 0 0 0
0 0 0 0 0 0 1 4 8 11 13 18 28 37 40 41 45 51 54 56 58 59 59 58 55 49 41 33 26 20 13 9 9 11 11 5 1 0 0 0 0 0 0 0 0 0 0 0 0
0 0 0 0 0 0 1 3 6 10 11 12 19 30 37 42 47 52 53 54 54 53 52 54 55 50 40 30 24 19 12 6 7 12 10 5 1 0 0 0 0 0 0 0 0 0 0 0 0
0 0 0 0 0 0 0 2 6 10 10 10 14 23 33 41 46 49 50 50 48 45 46 52 57 55 45 32 23 17 11 5 6 12 13 7 2 0 0 0 0 0 0 0 0 0 0 0 0
0 0 0 0 0 0 0 2 5 8 8 9 12 17 25 35 41 44 45 46 43 42 45 52 58 59 49 33 22 16 10 7 8 15 18 11 3 1 0 0 0 0 0 0 0 0 0 0 0
0 0 0 0 0 0 0 1 4 5 6 8 10 11 17 25 34 38 40 42 42 42 46 52 57 57 46 31 21 17 13 11 12 16 16 10 3 2 1 1 0 0 0 0 0 0 0 0 0
0 0 0 0 0 1 0 0 2 4 4 6 9 9 12 19 30 38 40 42 43 44 47 51 52 50 40 28 22 21 19 16 14 13 11 7 3 4 6 5 3 1 0 0 0 0 0 0 0
0 0 0 0 0 0 0 0 1 2 2 3 6 8 11 16 27 38 44 45 46 47 49 50 49 46 37 28 27 29 26 19 14 13 12 7 3 7 13 11 5 2 0 0 0 0 0 0 0
0 0 0 0 0 0 0 0 1 1 1 2 5 7 9 13 22 34 43 46 47 49 49 49 52 49 41 35 34 34 30 22 16 16 14 8 4 9 17 15 7 3 1 0 0 0 0 0 0
0 0 0 0 0 0 0 0 0 1 1 2 5 7 8 12 20 30 38 41 43 45 46 49 53 53 48 44 40 37 35 31 24 22 18 12 10 12 16 14 7 3 2 1 1 0 0 0 0
0 0 0 0 0 0 0 0 0 1 2 3 5 9 10 11 18 26 32 35 37 38 41 46 51 52 50 49 47 45 47 45 38 33 28 23 20 19 17 14 9 3 2 2 2 1 0 0 0
0 0 0 0 0 0 0 0 0 1 2 3 6 11 12 11 16 24 30 34 33 33 37 44 50 52 52 52 53 53 56 55 48 43 38 32 29 25 20 16 10 4 2 3 3 2 1 0 0

GEFSSGP_con_prob3kmehi_096.txt.gz
EHI
11 5 1 0 0 0 0 0 0 0 2 7 12 13 10 5 4 5 9 22 43 53 50 51 57 55 38 18 7 2 0 0 0 0 0 0 0 0 0 0 0 0 0 0 0 0 0 0 0
4 2 0 0 0 0 0 0 0 0 5 13 17 17 14 10 9 12 17 30 49 58 54 53 57 52 35 18 9 3 0 0 0 0 0 0 0 0 0 0 0 0 0 0 0 0 0 0 0
0 0 1 1 1 0 0 0 0 1 8 17 21 20 17 14 15 20 28 42 55 61 58 55 55 48 31 18 10 3 0 0 0 0 0 0 0 0 0 0 0 0 0 0 0 0 0 0 0
0 0 1 1 1 0 0 0 1 4 11 21 28 26 21 18 22 31 40 48 56 62 60 57 53 43 29 18 10 3 0 0 0 0 0 0 0 0 0 0 0 0 0 0 0 0 0 0 0
0 0 0 0 0 0 0 1 4 11 19 29 36 32 24 24 33 42 45 48 56 63 61 55 48 38 27 18 8 3 0 0 0 0 0 0 0 0 0 0 0 0 0 0 0 0 0 0 0
0 0 0 0 0 0 0 2 7 17 28 36 37 30 23 29 40 45 43 45 53 60 57 46 36 29 22 13 7 2 0 0 0 0 0 0 0 0 0 0 0 0 0 0 0 0 0 0 0
0 0 0 0 0 0 1 3 7 16 28 36 35 26 23 31 40 42 39 40 47 53 47 35 25 19 13 8 4 2 0 0 0 0 0 0 0 0 0 0 0 0 0 0 0 0 0 0 1
0 0 0 0 0 0 1 2 4 13 26 34 33 28 29 38 45 43 39 37 39 41 35 25 17 13 8 4 1 0 0 0 0 0 0 0 0 0 0 0 0 0 0 0 0 0 0 1 2
0 0 0 0 0 0 0 1 4 16 31 38 38 37 41 51 56 51 43 35 31 27 21 15 10 9 6 2 0 0 0 0 0 0 0 0 0 0 0 0 0 0 0 0 0 0 0 1 2
0 0 0 0 0 0 0 1 7 22 39 47 49 50 54 58 60 56 45 33 23 15 11 8 6 5 4 2 1 0 0 0 0 0 0 0 0 0 0 0 0 0 0 0 0 0 0 0 1
0 0 0 0 0 0 0 1 9 24 40 51 56 57 57 57 55 49 40 28 17 10 7 5 4 3 2 1 1 1 0 0 0 0 0 0 0 0 0 0 0 0 0 0 0 0 0 0 0
0 0 0 0 0 0 0 2 10 23 38 50 56 55 52 49 45 40 35 27 17 11 8 5 3 2 1 0 0 0 0 0 0 0 0 0 0 0 0 0 0 0 0 0 0 0 0 0 0
0 0 0 0 0 1 1 3 11 24 41 52 54 51 46 41 39 38 36 30 22 16 12 8 4 2 1 1 0 0 0 0 0 0 0 0 0 0 0 0 0 0 0 0 0 0 0 0 0
0 0 0 0 0 1 2 4 12 28 44 52 51 46 41 38 39 41 40 33 26 21 18 14 9 5 4 3 1 0 0 0 0 0 0 0 0 0 0 0 0 0 0 0 0 0 0 0 0
0 0 0 0 0 1 2 4 12 28 42 49 47 42 39 37 39 42 41 34 28 26 25 22 16 12 10 6 3 1 0 0 0 0 0 0 0 0 0 0 0 0 0 0 0 0 0 0 0
0 0 0 0 0 0 0 3 11 25 39 45 44 41 39 36 36 39 39 35 32 31 30 27 21 16 12 7 4 2 0 0 0 0 0 0 0 0 0 0 0 0 0 0 0 0 0 0 0
0 0 0 0 0 0 0 3 9 22 35 41 40 40 39 36 34 35 36 37 37 35 33 29 22 16 12 9 6 3 1 0 0 0 0 0 0 0 0 0 0 0 0 0 0 0 0 0 0
0 0 0 0 0 0 0 3 8 16 27 32 34 37 40 39 35 33 34 36 37 35 33 28 22 16 13 10 7 4 1 0 0 0 0 0 0 0 0 0 0 0 0 0 0 0 0 0 0
0 0 0 0 0 0 1 4 6 10 16 23 28 33 37 37 35 32 31 31 31 32 31 27 21 15 12 10 7 4 2 1 0 0 0 0 0 0 0 0 0 0 0 0 0 0 0 0 0
0 0 0 0 0 0 1 2 4 6 10 16 23 30 33 33 33 31 30 28 26 28 29 27 21 14 10 8 5 4 3 1 0 0 0 0 0 0 0 0 0 0 0 0 0 0 0 0 0
0 0 0 0 0 0 0 1 1 2 6 11 20 28 32 33 33 33 30 27 26 28 29 27 20 12 8 6 5 4 2 1 0 0 0 0 0 0 0 0 0 0 0 0 0 0 0 0 0
0 0 0 0 0 0 0 0 0 0 2 7 15 24 29 31 33 33 31 28 27 29 29 26 19 11 7 6 5 4 2 1 0 0 0 0 0 0 0 0 0 0 0 0 0 0 0 0 0
0 0 0 0 0 0 0 0 0 0 1 4 10 17 22 26 29 31 30 28 27 27 27 24 18 11 7 6 4 3 1 0 0 0 0 0 0 0 0 0 0 0 0 0 0 0 0 0 0
0 0 0 0 0 0 0 0 0 0 0 1 5 11 17 23 26 27 28 27 26 24 24 22 17 11 7 5 3 1 0 0 0 0 0 0 0 0 0 0 0 0 0 0 0 0 0 0 0
0 0 0 0 0 0 0 0 0 0 0 0 1 6 14 22 25 27 28 29 27 24 22 21 17 12 8 6 3 1 1 0 0 0 0 0 0 0 0 0 0 0 0 0 0 0 0 0 0
0 0 0 0 0 0 0 0 0 0 0 0 0 4 12 20 25 28 31 31 29 26 24 22 17 12 10 9 7 4 2 0 0 0 0 0 0 0 0 0 0 0 0 0 0 0 0 0 0
0 0 0 0 0 0 0 0 0 0 0 0 0 2 9 17 23 27 30 32 31 28 27 24 18 13 11 11 10 6 3 1 1 1 0 0 0 0 0 0 0 0 0 0 0 0 0 0 0
0 0 0 0 0 0 0 0 0 0 0 0 0 2 7 14 20 25 29 31 31 30 29 25 18 14 14 14 12 8 4 3 2 2 1 0 0 0 0 0 0 0 0 0 0 0 0 0 0
0 0 0 0 0 0 0 0 0 1 1 1 1 3 7 12 17 21 25 29 30 30 29 25 20 18 17 15 12 9 6 4 4 4 2 1 0 0 0 0 0 0 0 0 0 0 0 0 0
0 0 0 0 0 0 0 0 1 2 2 2 3 5 7 11 14 17 22 26 28 29 29 27 23 21 19 15 11 8 6 6 5 5 3 1 0 0 0 0 0 0 0 0 0 0 0 0 0

GEFSSGP_con_prob3kmehi_102.txt.gz
EHI
0 0 0 0 0 0 0 0 0 0 0 0 1 1 0 0 0 0 2 12 32 42 36 32 37 42 43 41 43 42 34 22 12 5 1 0 0 0 0 0 0 0 0 0 0 0 0 0 0
0 0 0 0 0 0 0 0 0 0 0 2 4 4 2 1 1 2 7 20 39 46 39 34 39 44 43 41 40 37 29 18 9 3 0 0 0 0 0 0 0 0 0 0 0 0 0 0 0
0 0 0 0 0 0 0 0 0 1 2 6 11 9 6 4 4 8 17 33 48 50 40 37 43 45 41 38 34 28 20 10 3 1 0 0 0 0 0 0 0 0 0 0 0 0 0 0 0
0 0 0 0 0 0 0 0 2 2 4 11 16 14 10 9 12 21 34 45 52 50 42 41 45 43 38 34 28 20 12 4 1 0 0 0 0 0 0 0 0 0 0 0 0 0 0 0 0
0 0 0 0 0 0 0 1 4 7 11 17 20 18 15 18 26 40 48 50 52 52 48 47 46 41 35 30 23 15 8 2 0 0 0 0 0 0 0 0 0 0 0 0 0 0 0 0 0
0 0 0 0 0 0 0 2 6 15 23 26 26 23 19 25 41 53 54 49 51 57 56 51 44 37 31 24 17 11 6 1 0 0 0 0 0 0 0 0 0 0 0 0 0 0 0 0 0
0 0 0 0 0 0 0 2 10 24 32 34 34 28 23 30 46 57 56 51 53 59 59 51 41 33 25 18 12 7 3 1 0 0 0 0 0 0 0 0 0 0 0 0 0 0 0 0 0
0 0 0 0 0 0 0 3 14 27 36 39 38 30 28 37 51 58 57 55 56 57 53 46 40 32 23 15 10 5 1 0 0 0 0 0 0 0 0 0 0 0 0 0 0 0 0 0 0
0 0 0 0 0 0 1 7 17 30 40 43 41 36 39 50 59 60 57 55 54 51 43 37 35 31 24 15 11 8 4 1 0 0 0 0 0 0 0 0 0 0 0 0 0 0 0 0 0
0 0 0 0 0 0 2 7 19 33 43 46 47 50 56 61 63 60 55 50 47 42 34 27 27 30 25 16 12 11 8 2 0 0 0 0 0 0 0 0 0 0 0 0 0 0 0 0 0
0 0 0 0 0 0 1 6 18 32 40 46 53 62 65 63 60 56 49 42 37 33 26 19 21 26 22 14 10 10 8 3 0 0 0 0 0 0 0 0 0 0 0 0 0 0 0 0 0
0 0 0 0 0 0 0 4 14 25 32 43 58 65 63 59 56 50 41 31 26 23 18 14 16 20 16 9 7 6 5 2 0 0 0 0 0 0 0 0 0 0 0 0 0 0 0 0 0
0 0 0 0 0 0 1 5 10 18 29 45 60 62 57 53 49 42 31 22 18 14 10 9 12 14 12 7 4 4 3 1 0 0 0 0 0 0 0 0 0 0 0 0 0 0 0 0 0
0 0 0 0 0 0 2 4 9 18 32 48 59 56 49 45 41 34 24 17 12 8 6 6 8 9 9 6 3 2 2 1 0 0 0 0 0 0 0 0 0 0 0 0 0 0 0 0 0
0 0 0 0 0 0 1 2 8 20 34 47 53 51 44 38 34 29 22 14 8 5 4 5 5 5 5 3 1 1 1 0 0 0 0 0 0 0 0 0 0 0 0 0 0 0 0 0 0
0 0 0 0 0 0 0 2 8 19 31 40 44 42 38 34 30 25 19 12 6 3 3 3 4 4 3 1 0 0 0 0 0 0 0 0 0 0 0 0 0 0 0 0 0 0 0 0 0
0 0 0 0 0 0 0 2 7 16 25 31 33 32 31 30 27 24 19 12 6 3 1 1 2 3 2 1 0 0 0 0 0 0 0 0 0 0 0 0 0 0 0 0 0 0 0 0 0
0 0 0 0 0 0 1 2 6 13 21 25 26 25 23 23 23 21 18 12 7 4 2 1 2 2 1 1 0 0 0 0 0 0 0 0 0 0 0 0 0 0 0 0 0 0 0 0 0
0 0 0 0 0 0 1 2 5 12 18 22 22 20 17 15 14 14 14 12 10 7 4 3 3 2 2 1 1 1 1 0 0 0 0 0 0 0 0 0 0 0 0 0 0 0 0 0 0
0 0 0 0 0 0 0 1 4 8 14 18 18 16 13 9 7 8 9 11 13 11 7 5 5 5 4 2 1 1 1 0 0 0 0 0 0 0 0 0 0 0 0 0 0 0 0 0 0
0 0 0 0 0 0 0 0 1 3 7 11 12 12 11 8 7 7 9 11 13 12 10 8 7 6 5 3 1 1 0 0 0 0 0 0 0 0 0 0 0 0 0 0 0 0 0 0 0
0 0 0 0 0 0 0 0 0 1 3 5 7 8 9 8 9 10 11 11 11 12 12 10 8 7 6 4 2 1 0 0 0 0 0 0 0 0 0 0 0 0 0 0 0 0 0 0 0
0 0 0 0 0 0 0 0 0 0 1 2 4 6 7 8 10 11 12 10 10 10 11 10 8 6 5 4 2 1 0 0 0 0 0 0 0 0 0 0 0 0 0 0 0 0 0 0 0
0 0 0 0 0 0 0 0 0 0 0 0 2 4 5 5 8 11 11 10 9 9 9 8 7 5 4 3 2 1 0 0 0 0 0 0 0 0 0 0 0 0 0 0 0 0 0 0 0
0 0 0 0 0 0 0 0 0 0 0 0 0 2 2 3 6 9 11 11 10 9 8 7 6 4 3 3 2 0 0 0 0 0 0 0 0 0 0 0 0 0 0 0 0 0 0 0 0
0 0 0 0 0 0 0 0 0 0 0 0 0 0 1 1 3 6 10 12 11 10 8 7 5 4 4 3 2 1 0 0 0 0 0 0 0 0 0 0 0 0 0 0 0 0 0 0 0
0 0 0 0 0 0 0 0 0 0 0 0 0 0 0 0 1 4 8 10 10 9 8 7 6 5 4 4 3 1 0 0 0 0 0 0 0 0 0 0 0 0 0 0 0 0 0 0 0
0 0 0 0 0 0 0 0 0 0 0 0 0 0 0 0 0 1 4 6 7 8 9 9 8 6 6 6 5 3 2 1 0 0 0 0 0 0 0 0 0 0 0 0 0 0 0 0 0
0 0 0 0 0 0 0 0 0 0 0 0 0 0 0 0 0 0 2 5 7 10 10 10 9 7 6 6 6 6 4 3 1 0 0 0 0 0 0 0 0 0 0 0 0 0 0 0 0
0 0 0 0 0 0 0 0 0 0 0 0 0 0 0 0 0 1 2 5 9 11 11 10 9 7 6 6 6 6 6 4 2 1 0 0 0 0 0 0 0 0 0 0 0 0 0 0 0

GEFSSGP_con_prob3kmehi_108.txt.gz
EHI
0 0 0 0 0 0 0 0 0 0 0 0 0 0 0 0 0 0 0 0 5 18 21 12 5 5 9 14 18 21 22 20 15 7 2 0 0 0 0 0 0 0 0 0 0 0 0 0 0
0 0 0 0 0 0 0 0 0 0 0 0 0 0 0 0 0 1 2 2 5 15 21 16 9 6 8 12 16 18 18 16 10 4 1 0 0 0 0 0 0 0 0 0 0 0 0 0 0
0 0 0 0 0 0 0 0 0 0 0 0 0 0 1 2 3 6 9 8 8 15 24 25 16 7 7 11 14 15 13 10 5 2 1 0 0 0 0 0 0 0 0 0 0 0 0 0 0
0 0 0 0 0 0 0 0 0 0 0 0 0 0 3 8 11 15 18 15 14 19 27 30 21 11 9 11 12 11 9 6 3 2 1 0 0 0 0 0 0 0 0 0 0 0 0 0 0
0 0 0 0 0 0 0 0 0 0 0 0 0 2 9 18 23 25 22 18 19 21 26 31 25 15 10 9 8 7 5 4 3 2 1 0 1 1 1 0 0 0 0 0 0 0 0 0 0
0 0 0 0 0 0 0 0 0 0 1 2 3 6 17 32 39 36 25 19 19 19 24 29 24 15 11 8 6 5 4 4 5 4 1 0 1 1 1 0 0 0 0 0 0 0 0 0 0
0 0 0 0 0 0 0 0 0 0 1 4 7 12 27 46 55 48 35 24 19 17 20 22 16 11 9 7 5 4 3 4 5 4 2 1 0 0 0 0 0 0 0 0 0 0 0 0 0
0 0 0 0 0 0 0 0 0 0 3 7 12 19 38 59 66 61 51 37 27 22 20 17 12 8 6 4 3 3 4 5 4 3 2 1 0 0 0 0 0 0 0 0 0 0 0 0 0
0 0 0 0 0 0 0 0 0 1 5 12 18 29 50 67 72 71 64 53 42 33 26 20 15 11 6 3 1 1 3 4 3 2 1 0 0 0 0 0 0 0 0 0 0 0 0 0 0
0 0 0 0 0 0 0 0 0 1 5 11 23 42 60 70 73 73 68 60 52 43 34 27 20 15 10 5 3 2 3 3 2 1 0 0 0 0 0 0 0 0 0 0 0 0 0 0 0
0 0 0 0 0 0 0 0 0 1 3 9 27 51 66 71 71 69 64 58 53 47 39 31 24 19 15 10 6 5 5 3 1 0 0 0 0 0 0 0 0 0 0 0 0 0 0 0 0
0 0 0 0 0 0 0 0 0 2 5 12 28 51 66 70 67 63 58 53 50 46 38 31 26 24 20 14 8 6 5 3 1 1 0 0 0 0 0 0 0 0 0 0 0 0 0 0 0
0 0 0 0 0 0 0 0 1 4 9 16 27 44 57 60 58 54 49 47 46 42 34 27 25 25 24 19 11 6 4 3 1 1 0 0 0 0 0 0 0 0 0 0 0 0 0 0 0
0 0 0 0 0 0 0 0 2 6 12 19 28 38 46 47 46 44 42 41 41 38 31 25 21 22 22 18 11 6 4 4 2 0 0 0 0 1 0 0 0 0 0 0 0 0 0 0 0
0 0 0 0 0 0 0 1 4 9 14 22 30 36 40 40 37 36 35 34 33 32 29 24 19 17 16 13 9 5 5 4 2 0 0 0 0 0 0 0 0 0 0 0 0 0 0 0 0
0 0 0 0 0 0 0 2 7 12 16 23 31 34 36 36 34 31 28 27 27 27 27 22 15 12 12 11 10 7 5 4 2 1 1 0 0 0 0 0 0 0 0 0 0 0 0 0 0
0 0 0 0 0 0 0 2 7 11 16 22 28 30 29 30 30 26 24 24 24 25 25 19 12 9 11 14 14 11 7 3 1 1 1 0 0 0 0 0 0 0 0 0 0 0 0 0 0
0 0 0 0 0 0 0 2 5 10 13 17 21 24 23 22 23 24 24 24 24 23 20 16 13 12 15 17 17 13 6 1 0 1 1 0 0 0 0 0 0 0 0 0 0 0 0 0 0
0 0 0 0 0 0 0 1 3 8 11 11 15 18 17 15 18 23 26 24 22 19 15 13 13 15 18 19 18 14 7 2 0 0 1 1 0 0 0 0 0 0 0 0 0 0 0 0 0
0 0 0 0 0 0 0 1 3 7 8 7 9 13 14 14 19 25 25 21 17 15 13 12 12 13 14 16 19 16 10 4 1 1 2 2 1 0 0 0 0 0 0 0 0 0 0 0 0
0 0 0 0 0 0 0 1 4 6 5 3 5 10 14 16 20 24 22 16 12 12 13 13 13 10 9 12 16 14 9 4 1 1 2 2 1 0 0 0 0 0 0 0 0 0 0 0 0
0 0 0 0 0 0 0 1 3 3 2 2 5 10 14 16 19 20 17 11 9 9 10 12 14 13 10 10 11 9 5 2 1 1 1 2 1 0 0 1 1 0 0 0 0 0 0 0 0
0 0 0 0 0 0 0 0 1 1 1 2 5 9 13 15 16 15 12 7 7 7 8 9 13 16 14 11 9 6 3 1 1 1 1 1 1 0 0 1 2 1 0 0 0 0 0 0 0
0 0 0 0 0 0 0 0 0 0 0 1 5 8 11 13 14 13 11 9 7 6 6 6 11 15 16 12 8 4 3 3 3 2 0 0 0 0 1 2 2 1 0 0 0 0 0 0 0
0 0 0 0 0 0 0 0 0 0 0 0 3 6 9 10 12 13 13 11 8 7 6 6 8 13 14 11 7 4 4 4 4 2 1 0 0 0 1 2 2 2 1 0 0 0 0 0 0
0 0 0 0 0 0 0 0 0 0 0 0 1 5 7 9 10 11 12 11 10 8 7 7 8 11 12 9 8 7 5 5 4 3 2 1 1 0 0 1 2 2 1 0 0 0 0 0 0
0 0 0 0 0 0 0 0 0 0 0 0 1 4 7 8 8 8 8 10 11 11 10 10 11 13 12 11 10 8 6 5 4 3 2 2 2 1 0 0 1 2 2 1 0 0 0 0 0
0 0 0 0 0 0 0 0 0 1 1 0 1 4 7 7 6 5 6 9 12 13 12 13 14 15 14 12 10 7 5 4 4 3 3 3 4 2 1 1 1 3 3 2 1 1 1 1 1
0 0 0 0 0 0 0 0 1 2 2 1 2 4 6 7 6 6 7 9 12 14 14 15 15 15 14 14 11 7 5 4 4 4 4 6 6 5 3 3 4 4 4 3 3 3 3 3 2
0 0 0 0 0 0 0 0 2 3 2 1 2 4 7 9 9 7 7 9 12 13 15 16 16 15 14 14 12 9 6 5 5 5 5 7 8 5 5 6 6 5 4 4 5 5 4 4 3

GEFSSGP_con_prob3kmehi_114.txt.gz
EHI
7 14 24 27 22 11 2 0 1 0 0 0 0 0 1 2 2 4 17 41 62 61 51 48 42 27 13 5 2 0 0 0 0 0 0 0 0 0 0 0 0 0 0 0 0 0 0 0 0
7 15 20 19 14 6 1 0 1 0 0 0 0 1 1 2 3 8 25 50 64 57 46 47 44 29 14 5 2 0 0 0 0 0 0 0 0 0 0 0 0 0 0 0 0 0 0 0 0
6 10 11 10 6 2 0 0 0 0 0 0 1 3 6 6 7 17 36 56 64 55 49 51 47 30 12 3 1 0 0 0 0 0 0 0 0 0 0 0 0 0 0 0 0 0 0 0 0
4 4 4 4 3 1 0 0 0 0 0 1 3 7 14 15 16 25 38 54 63 59 54 53 47 29 10 1 0 0 0 0 0 0 0 0 0 0 0 0 0 0 0 0 0 0 0 0 0
3 2 1 1 1 0 0 0 0 0 0 2 4 13 23 25 27 31 35 49 64 65 56 51 44 27 8 1 0 0 0 0 0 0 0 0 0 0 0 0 0 0 0 0 0 0 0 0 0
1 1 1 0 0 0 0 0 0 0 0 1 5 17 33 38 37 35 33 45 64 69 61 49 37 21 7 1 0 0 0 0 0 0 0 0 0 0 0 0 0 0 0 0 0 0 0 0 0
0 0 0 0 0 0 0 0 0 0 0 0 4 21 45 54 45 34 32 44 62 70 62 46 28 15 7 2 0 0 0 0 0 0 0 0 0 0 0 0 0 0 0 0 0 0 0 0 0
0 0 0 0 0 0 0 0 0 0 0 1 7 28 58 66 51 36 34 45 61 66 56 38 21 12 6 1 0 0 0 0 0 0 0 0 0 0 0 0 0 0 0 0 0 0 0 0 0
0 0 0 0 0 0 0 0 0 0 2 8 20 43 65 71 61 49 45 52 64 64 50 31 19 13 6 2 1 1 0 0 0 0 0 0 0 0 0 0 0 0 0 0 0 0 0 0 0
0 0 0 0 0 0 0 0 0 0 4 17 35 53 67 72 72 65 58 62 68 64 48 33 24 16 10 8 6 3 2 2 1 0 0 0 0 0 0 0 1 0 0 0 0 0 0 0 0
0 0 0 0 0 0 0 0 0 1 6 19 37 53 65 74 76 72 66 65 68 64 54 43 33 24 19 17 12 7 5 4 2 1 1 0 0 0 0 1 1 0 0 0 0 0 0 0 0
0 0 0 0 0 0 0 0 0 3 9 18 33 48 61 71 74 72 68 66 66 64 59 51 42 37 35 27 16 11 9 6 3 3 2 1 1 2 2 2 1 0 0 0 0 0 1 1 1
0 0 0 0 0 0 0 0 2 8 14 19 29 45 58 66 71 72 70 67 64 62 59 55 53 53 50 40 27 19 15 10 8 7 4 3 4 4 5 4 3 2 2 2 0 0 1 2 2
0 0 0 0 0 0 0 1 5 12 16 18 26 40 54 63 68 71 69 65 62 60 59 60 60 60 57 48 38 29 20 15 14 11 7 6 8 9 9 6 4 4 4 3 1 1 1 1 1
0 0 0 0 0 0 0 3 8 11 12 17 25 37 52 62 66 67 66 63 60 59 59 60 59 58 54 46 37 29 21 18 20 18 12 9 12 15 13 9 6 5 5 3 2 1 1 0 0
0 0 0 0 0 0 1 4 8 9 12 19 25 34 49 59 62 62 63 63 61 60 58 56 54 52 48 41 34 28 23 23 26 26 20 15 15 15 13 11 8 6 4 3 2 2 1 0 1
0 0 0 0 0 0 1 4 7 8 13 20 26 35 46 55 60 62 64 65 64 62 58 53 49 47 44 41 40 38 33 32 32 30 26 20 14 12 9 9 8 5 2 2 3 3 1 0 1
0 0 0 0 0 0 1 3 7 9 12 21 30 39 47 54 61 66 66 66 64 62 58 52 47 43 41 42 45 44 38 34 32 30 28 22 13 8 7 6 6 3 1 2 3 3 1 0 1
0 0 0 0 0 1 1 3 8 10 12 21 33 44 50 56 63 68 66 63 61 61 58 51 44 41 40 40 42 40 34 30 29 28 28 21 12 7 6 6 5 3 2 3 3 2 1 0 0
0 0 0 0 0 1 2 4 8 11 14 21 31 41 47 55 64 67 64 61 59 60 56 47 41 39 36 35 36 34 29 27 27 28 25 18 12 8 7 8 7 5 4 3 1 1 0 0 0
0 0 0 0 0 1 1 4 9 12 12 17 26 35 41 50 61 66 63 60 59 59 53 45 41 38 32 27 27 28 26 24 26 27 23 16 11 8 8 8 7 6 6 4 2 1 0 0 0
0 0 0 0 0 0 1 3 7 9 9 11 19 30 37 45 55 62 61 57 55 53 47 43 43 39 29 22 20 21 21 20 23 25 22 17 11 7 6 6 5 5 6 5 2 1 1 0 0
0 0 0 0 0 0 0 2 4 6 7 8 13 25 36 44 53 57 56 51 46 44 41 40 42 39 31 24 20 19 17 17 19 21 21 17 11 8 6 5 5 5 4 3 1 1 1 1 0
0 0 0 0 0 0 0 1 2 3 4 6 11 20 32 42 50 54 52 47 42 38 36 37 41 39 33 27 23 20 18 18 18 18 18 14 10 8 6 6 6 5 3 1 1 1 2 1 1
0 0 0 0 0 0 0 1 1 1 1 5 9 15 25 36 44 50 50 48 44 40 37 37 39 39 34 28 25 24 21 18 16 15 13 9 6 7 9 9 8 6 3 2 1 1 1 1 2
0 0 0 0 0 0 0 0 1 0 0 2 7 11 19 29 38 42 46 48 47 45 43 41 40 37 33 30 30 31 27 20 16 15 11 6 4 8 14 15 11 7 4 2 1 1 1 2 3
0 0 0 0 0 0 0 0 1 1 0 2 5 9 14 23 33 37 40 44 46 46 46 45 42 37 33 32 33 34 32 24 18 17 13 10 8 11 19 20 13 7 4 3 3 1 1 3 3
0 0 0 0 0 0 0 0 1 1 1 2 5 8 12 20 29 34 37 39 41 44 44 44 43 39 35 33 31 32 33 28 23 23 22 20 19 20 22 21 14 8 4 4 5 3 2 3 3
0 0 0 0 0 0 0 0 0 1 1 2 5 7 13 20 29 35 36 36 37 40 40 41 43 41 37 34 31 31 32 31 29 29 30 30 30 29 25 20 14 8 4 6 7 6 4 4 4
0 0 0 0 0 0 0 0 1 1 1 2 4 7 13 23 32 37 38 35 34 37 39 40 42 42 39 37 36 33 31 32 33 32 33 35 36 34 27 20 14 7 4 6 9 8 6 5 5

GEFSSGP_con_prob3kmehi_120.txt.gz
EHI
13 5 0 0 0 0 0 0 0 0 1 2 3 2 1 0 1 1 6 24 45 52 45 44 53 54 46 36 25 14 6 3 3 3 3 3 3 3 3 3 3 3 3 3 1 0 0 0 0
5 2 0 0 0 0 0 0 0 0 2 5 5 4 2 3 3 3 9 29 52 58 50 49 55 56 48 37 26 15 7 3 3 3 3 3 3 3 3 3 3 3 3 3 2 1 0 0 0
0 0 0 0 0 0 1 1 0 1 4 7 9 9 8 9 11 11 21 42 59 62 56 55 60 60 51 39 26 15 7 3 3 3 3 3 3 3 3 3 3 2 2 3 3 1 0 0 0
0 0 0 0 0 0 1 1 1 1 5 10 15 17 16 22 29 32 41 53 61 61 58 59 64 64 54 40 25 13 7 4 3 3 3 3 3 3 3 3 1 1 1 2 2 1 0 0 0
0 0 0 0 0 0 1 1 1 4 9 20 27 26 25 36 52 56 54 58 62 61 58 60 65 64 53 40 25 13 7 4 3 3 3 3 3 3 3 2 1 0 0 1 1 1 0 0 0
0 0 0 0 0 0 0 1 2 8 18 31 40 37 34 48 64 66 59 60 64 64 59 57 58 56 48 37 25 14 7 4 3 3 3 3 3 3 3 2 1 0 0 0 0 0 0 0 0
0 0 0 0 0 0 0 1 4 13 25 37 46 44 40 50 63 66 62 60 62 62 58 50 45 42 39 33 23 15 8 5 3 3 3 3 3 3 3 3 1 0 0 0 0 0 0 0 0
0 0 0 0 0 0 0 0 6 18 29 37 45 46 44 49 62 69 66 61 58 55 50 43 35 30 27 24 18 13 8 5 4 4 3 3 3 2 2 2 1 0 0 0 0 0 0 0 0
0 0 0 0 0 0 0 1 8 21 32 36 42 48 50 54 65 73 72 66 58 50 43 38 32 24 18 14 11 9 6 4 4 4 3 2 1 1 1 1 1 0 0 0 0 0 0 0 0
0 0 0 0 0 0 1 3 10 23 30 32 39 50 56 60 68 75 76 71 63 54 44 36 28 19 12 8 6 5 4 3 2 1 1 1 0 0 0 0 0 0 0 0 0 0 0 0 0
0 0 0 0 0 0 1 2 9 19 24 27 37 50 57 61 66 71 74 71 65 58 47 34 23 14 8 6 5 4 4 2 1 0 0 0 0 0 0 0 0 0 0 0 0 0 0 0 0
0 0 0 0 0 0 0 1 6 13 20 28 39 49 57 60 62 65 67 66 62 56 46 32 18 10 6 6 5 4 4 3 1 0 0 0 0 0 0 0 0 0 0 0 0 0 0 0 0
0 0 0 0 0 0 0 1 5 13 24 36 47 53 58 59 58 60 61 60 57 51 42 29 17 9 6 5 4 3 3 2 1 0 0 0 0 0 0 0 0 0 0 0 0 0 0 0 0
0 0 0 0 0 0 1 4 9 19 31 42 50 56 57 54 54 57 58 55 52 46 37 26 16 11 8 5 3 2 1 1 0 0 0 0 0 0 0 0 0 0 0 0 0 0 0 0 0
0 0 0 0 0 0 2 4 11 24 36 41 47 54 54 50 50 56 57 53 48 42 32 24 18 14 10 5 2 1 0 0 0 0 0 0 0 0 0 0 0 0 0 0 0 0 0 0 0
0 0 0 0 0 0 1 3 11 25 35 39 44 50 51 46 47 55 56 53 48 40 30 23 20 18 13 7 4 2 2 1 1 0 0 0 0 0 0 0 0 0 0 0 0 0 0 0 0
0 0 0 0 0 0 1 3 10 19 28 34 40 46 46 42 43 50 53 51 47 40 31 25 24 22 18 12 8 7 6 5 3 1 0 0 0 0 0 0 0 0 0 0 0 0 0 0 0
0 0 0 0 0 1 2 4 8 13 21 27 33 39 42 40 40 45 49 47 44 40 33 29 26 24 21 17 14 12 11 9 5 1 0 0 0 0 0 0 0 0 0 0 0 0 0 0 0
0 0 0 0 1 1 2 5 8 11 17 23 28 35 40 40 40 44 47 45 43 41 37 32 26 21 19 17 14 13 13 10 5 1 0 0 0 1 0 0 0 0 0 0 0 0 0 0 0
0 0 0 1 2 1 2 5 7 10 14 18 24 32 39 42 43 44 45 45 45 43 38 30 24 19 16 13 11 10 10 8 4 1 0 0 0 0 0 0 0 0 0 0 0 0 0 0 0
0 0 0 1 2 1 2 3 4 7 9 12 19 29 40 44 44 41 40 40 42 41 35 28 23 19 15 12 9 8 7 5 2 0 0 0 1 1 0 0 0 0 0 0 0 0 0 0 0
0 0 0 0 1 1 1 1 1 2 4 8 16 28 39 42 41 37 34 33 35 34 30 25 22 19 16 12 10 8 6 3 1 0 0 0 1 1 0 0 0 0 0 0 0 0 0 0 0
0 0 0 0 0 0 0 0 0 0 2 7 15 26 34 37 38 35 31 28 27 26 24 21 19 18 15 11 8 6 4 3 1 0 0 0 1 1 0 0 0 0 0 0 0 0 0 0 0
0 0 0 0 0 0 0 0 0 0 1 5 12 20 26 31 34 34 31 26 22 21 21 19 17 16 13 9 6 4 3 3 2 0 0 0 0 0 0 0 0 0 0 0 0 0 0 0 0
0 0 0 0 0 0 0 0 0 0 0 3 7 13 20 28 33 34 33 29 24 22 22 20 17 14 11 7 4 3 3 3 1 0 0 0 0 0 0 0 0 0 0 0 0 0 0 0 0
0 0 0 0 0 0 0 0 0 0 0 2 6 12 19 27 32 33 33 31 27 25 26 23 17 12 9 6 3 2 2 2 1 0 0 0 0 0 0 0 0 1 1 0 0 0 0 0 0
0 0 0 0 0 0 0 0 0 0 0 2 8 15 19 23 26 27 27 28 27 27 26 23 18 13 8 6 4 2 1 1 0 0 0 0 0 0 0 0 0 1 1 0 0 0 0 0 0
0 0 0 0 0 0 0 0 0 1 1 2 8 13 16 18 19 20 19 22 26 26 25 23 20 15 9 6 5 4 2 1 0 0 0 0 0 0 0 0 0 0 0 0 0 0 0 0 0
0 0 0 0 0 0 0 0 0 0 1 3 7 11 14 16 18 17 16 18 23 25 24 23 21 16 11 8 7 5 4 2 1 1 0 0 0 0 0 0 0 0 0 0 0 0 0 0 0
0 0 0 0 0 0 0 0 0 0 1 4 9 11 14 17 20 18 16 17 20 23 24 23 21 18 14 10 9 6 4 3 2 2 1 0 0 0 0 0 0 0 0 0 0 0 0 0 0

GEFSSGP_con_prob3kmehi_126.txt.gz
EHI
0 0 0 0 0 0 0 0 0 0 0 0 0 0 0 0 0 0 0 7 22 33 34 36 45 52 52 48 41 35 30 30 28 21 15 9 3 1 0 0 0 0 0 0 0 0 0 0 0
0 0 0 0 0 0 0 0 0 0 1 1 2 1 1 0 0 0 2 12 31 41 39 42 50 55 53 48 41 34 28 25 21 15 10 6 2 0 0 0 0 0 0 0 0 0 0 0 0
0 0 0 0 0 0 0 0 0 1 2 4 6 5 3 2 2 3 11 28 44 49 46 49 57 58 54 49 40 32 25 17 11 7 5 2 0 0 0 0 0 0 0 0 0 0 0 0 0
0 0 0 0 0 0 0 0 1 3 5 8 10 11 7 4 6 14 30 47 56 55 50 54 60 60 55 48 37 28 20 12 6 4 2 1 0 0 0 0 0 0 0 0 0 0 0 0 0
0 0 0 0 0 0 0 0 1 4 7 12 15 16 13 11 17 33 48 59 63 61 55 55 60 59 53 43 32 23 15 8 3 2 1 0 0 0 0 0 0 0 0 0 0 0 0 0 0
0 0 0 0 0 0 0 0 2 6 12 19 23 22 19 21 32 46 56 61 65 65 59 55 56 55 48 38 28 19 12 6 2 1 0 0 0 0 0 0 0 0 0 0 0 0 0 0 0
0 0 0 0 0 0 0 0 3 10 19 28 31 28 24 28 39 51 58 62 65 66 62 55 51 49 42 34 25 18 11 4 1 0 0 0 0 0 0 0 0 0 0 0 0 0 0 0 0
0 0 0 0 0 0 0 1 4 12 23 33 36 31 29 37 48 55 62 66 66 65 61 55 50 45 37 27 21 16 10 4 1 0 0 0 0 0 0 0 0 0 0 0 0 0 0 0 0
0 0 0 0 0 0 0 2 6 15 27 35 37 36 41 55 60 61 65 69 69 64 57 53 50 44 34 24 18 13 8 5 2 1 0 1 1 0 0 0 0 0 0 0 0 0 0 0 0
0 0 0 0 0 0 1 3 9 18 27 33 39 48 61 68 65 61 62 65 67 63 55 48 45 40 34 29 22 13 7 4 1 1 1 1 0 0 0 0 0 0 0 0 0 0 0 0 0
0 0 0 0 0 0 1 3 10 17 20 26 42 59 70 70 63 57 54 54 57 59 54 45 39 35 34 33 26 15 7 2 0 1 1 0 0 0 0 0 0 0 0 0 0 0 0 0 0
0 0 0 0 0 0 0 2 7 11 14 23 41 58 66 65 58 51 47 46 48 52 50 43 35 31 30 29 23 13 5 1 0 1 0 0 0 0 0 0 0 0 0 0 0 0 0 0 0
0 0 0 0 0 0 1 2 3 7 14 27 41 51 59 58 53 48 45 44 45 45 43 38 31 26 21 17 13 7 2 0 0 0 0 0 0 0 0 0 0 0 0 0 0 0 0 0 0
0 0 0 0 0 1 2 2 3 7 19 33 40 44 48 49 49 48 45 44 42 39 35 31 26 20 13 8 6 3 1 0 0 0 0 0 0 0 0 0 0 0 0 0 0 0 0 0 0
0 0 0 0 0 0 1 1 3 11 24 34 37 36 36 39 43 44 43 41 38 33 30 26 21 15 8 5 3 2 0 0 0 0 0 0 0 0 0 0 0 0 0 0 0 0 0 0 0
0 0 0 0 0 0 0 1 4 13 26 32 33 33 33 33 36 38 38 35 30 27 24 20 16 11 6 3 1 1 0 0 0 0 0 0 0 0 0 0 0 0 0 0 0 0 0 0 0
0 0 0 0 0 0 0 1 3 12 23 29 32 35 34 32 31 33 33 30 24 20 18 15 11 7 3 1 0 0 0 0 0 0 0 0 0 0 0 0 0 0 0 0 0 0 0 0 0
0 0 0 0 0 0 0 0 2 9 17 24 30 35 33 29 26 26 28 27 22 17 14 11 8 4 2 0 0 0 0 0 0 0 0 0 0 0 0 0 0 0 0 0 0 0 0 0 0
0 0 0 0 0 0 0 0 1 5 10 16 24 29 30 27 24 23 25 25 21 15 12 10 8 5 3 1 0 0 0 0 0 0 0 0 0 0 0 0 0 0 0 0 0 0 0 0 0
0 0 0 0 0 0 0 0 0 2 5 9 15 21 27 29 28 26 24 21 17 14 11 9 6 5 5 3 1 1 1 1 1 1 1 0 0 0 0 0 0 0 0 0 0 0 0 0 0
0 0 0 0 0 0 0 0 0 1 3 4 8 15 23 28 30 27 22 15 11 10 10 8 5 5 6 5 3 2 1 1 2 2 2 1 0 0 0 0 0 0 0 0 0 0 0 0 0
0 0 0 0 0 0 0 0 0 0 1 1 4 11 18 24 26 25 19 13 7 6 6 7 5 5 5 6 5 4 3 2 2 2 2 1 0 0 0 0 0 0 0 0 0 0 0 0 0
0 0 0 0 0 0 0 0 0 0 0 0 2 7 12 18 20 20 18 12 6 4 4 5 5 4 5 4 4 4 3 3 3 1 1 1 0 0 0 0 0 0 0 0 0 0 0 0 0
0 0 0 0 0 0 0 0 0 0 0 1 2 5 8 10 13 14 15 11 6 4 4 4 4 5 4 4 3 3 3 3 2 1 0 0 0 0 0 0 0 0 0 0 0 0 0 0 0
0 0 0 0 0 0 0 0 0 0 0 1 3 5 6 5 5 9 11 8 5 4 5 5 5 5 5 4 3 3 3 3 3 1 1 0 0 0 0 0 0 0 0 0 0 0 0 0 0
0 0 0 0 0 0 0 0 0 0 0 1 4 6 6 4 2 5 8 7 5 4 5 5 5 5 4 3 3 3 2 2 2 2 2 1 0 0 0 0 0 0 0 0 0 0 0 0 0
0 0 0 0 0 0 0 0 0 0 0 1 2 4 5 2 1 4 6 6 5 5 4 4 3 3 3 3 3 1 1 1 1 1 2 1 0 0 0 0 0 0 0 0 0 0 0 0 0
0 0 0 0 0 0 0 0 0 0 0 0 1 1 1 1 0 2 3 4 5 5 5 4 3 3 3 3 3 1 0 0 0 0 1 1 0 0 0 0 0 0 0 0 0 0 0 0 0
0 0 0 0 0 0 0 0 0 0 0 0 0 0 0 0 1 2 2 2 3 5 5 5 4 4 3 4 4 2 0 0 0 0 0 0 0 0 0 0 0 0 0 0 0 0 0 0 0
0 0 0 0 0 0 0 0 0 0 0 0 0 0 1 1 2 3 3 1 2 4 4 4 4 4 4 5 5 3 1 0 0 0 0 0 0 0 0 0 0 0 0 0 0 0 0 0 0

GEFSSGP_con_prob3kmehi_132.txt.gz
EHI
2 2 4 8 7 2 0 0 0 0 0 0 0 0 0 0 0 1 2 6 13 18 18 19 25 28 28 34 41 41 32 24 17 13 9 5 2 1 0 0 0 0 0 0 0 0 0 0 0
1 1 3 5 4 1 0 0 0 0 0 0 0 0 0 0 2 3 6 11 14 17 18 22 29 29 28 32 35 35 30 23 18 14 10 5 2 1 0 0 0 0 0 0 0 0 0 0 0
0 0 1 1 1 0 0 0 0 0 0 0 0 0 0 2 4 7 13 16 16 16 21 31 35 31 28 29 29 27 24 20 16 12 8 3 1 0 0 0 0 0 0 0 0 0 0 0 0
0 0 0 0 0 0 0 0 0 0 1 1 1 2 3 4 6 12 19 21 19 18 26 37 40 34 30 28 25 21 17 13 10 6 3 1 0 0 0 0 0 0 0 0 0 0 0 0 0
0 0 0 0 0 0 0 0 0 0 1 2 2 6 10 12 14 21 24 23 21 20 27 38 41 37 33 29 22 15 10 7 5 3 1 0 0 0 0 0 0 0 0 0 0 0 0 0 0
0 0 0 0 0 0 0 0 0 0 1 2 3 11 23 30 31 30 27 23 21 22 29 37 37 33 31 27 19 13 8 5 4 3 2 1 1 0 0 0 0 0 0 0 0 0 0 0 0
0 0 0 0 0 0 0 0 0 0 1 2 4 15 36 49 48 38 29 24 22 24 31 34 28 23 22 20 16 11 7 5 4 4 3 2 1 0 0 0 0 0 0 0 0 0 0 0 0
0 0 0 0 0 0 0 0 0 0 1 2 5 18 43 62 60 48 39 34 30 28 29 28 22 17 13 12 11 7 4 2 2 3 3 2 1 0 0 0 0 0 0 0 0 0 0 0 0
0 0 0 0 0 0 0 0 0 0 2 5 11 26 51 69 68 61 57 52 45 36 29 23 19 15 10 8 8 4 1 0 1 1 1 1 1 0 0 0 0 0 0 0 0 0 0 0 0
0 0 0 0 0 0 0 0 0 0 3 9 21 43 65 75 73 69 66 63 58 48 34 23 18 15 12 10 9 5 2 1 0 0 1 1 0 0 0 1 0 0 0 0 0 0 0 0 0
0 0 0 0 0 0 0 0 0 0 2 9 28 55 74 78 74 69 64 62 61 55 42 31 24 19 15 13 11 9 7 4 2 1 1 1 0 0 2 3 2 0 0 0 0 0 0 0 0
0 0 0 0 0 0 0 0 0 1 2 10 30 57 72 74 71 65 60 58 57 56 49 39 33 28 22 17 13 11 10 8 5 3 2 1 0 1 3 4 3 1 0 0 0 0 0 0 0
0 0 0 0 0 0 0 0 0 1 3 11 30 51 63 67 64 61 59 56 54 55 50 44 40 36 30 24 17 12 12 10 7 4 2 1 0 0 2 4 4 2 1 0 0 0 0 0 0
0 0 0 0 0 0 0 0 0 1 4 13 28 42 52 57 57 57 58 55 53 52 48 44 41 36 31 26 17 11 10 9 5 2 1 0 0 0 1 2 4 3 1 0 0 0 0 0 0
0 0 0 0 0 0 0 0 1 2 7 15 25 34 44 51 52 53 53 52 51 49 45 41 35 28 25 21 14 10 7 4 2 0 0 0 0 0 0 1 3 2 1 0 0 0 0 0 0
0 0 0 0 0 0 0 0 1 3 8 16 24 31 41 47 49 49 48 47 47 45 41 34 24 19 20 19 15 11 6 2 0 0 0 0 0 0 0 1 1 1 1 1 0 0 0 0 0
0 0 0 0 0 0 0 0 0 2 7 14 21 29 37 44 46 45 44 45 45 41 36 29 20 17 18 18 17 14 8 3 1 0 0 0 0 0 0 0 1 0 0 0 0 0 0 0 0
0 0 0 0 0 0 0 0 1 3 7 12 19 24 30 37 42 41 40 41 42 37 32 26 22 18 17 14 13 12 7 3 1 0 1 2 1 0 0 0 1 1 1 0 0 0 0 0 0
0 0 0 0 0 0 0 0 1 3 7 13 18 21 25 32 39 40 38 36 37 34 30 25 20 18 16 11 8 8 6 3 2 1 2 3 2 1 0 1 2 3 2 0 0 0 0 0 0
0 0 0 0 0 0 0 0 1 3 7 12 16 19 24 30 38 42 39 34 31 31 29 23 15 13 12 8 7 8 8 5 3 2 3 3 3 2 1 1 2 2 1 0 0 0 0 0 0
0 0 0 0 0 0 0 0 0 2 5 10 13 16 21 29 37 43 40 33 29 28 26 18 11 8 8 7 6 7 7 5 3 3 4 4 3 2 1 0 1 1 0 0 0 0 0 0 0
0 0 0 0 0 0 0 0 0 1 4 8 10 11 14 22 32 39 37 31 27 26 23 17 10 8 9 9 7 5 4 3 3 4 4 4 4 3 1 0 0 0 0 0 0 0 0 0 0
0 0 0 0 0 0 0 0 0 1 2 5 6 6 8 14 24 32 31 26 23 22 20 17 14 11 11 10 7 5 3 2 2 3 4 4 5 4 3 2 2 1 0 0 0 0 0 0 0
0 0 0 0 0 0 0 0 0 0 1 2 3 4 8 12 19 26 26 22 19 17 17 18 17 14 12 10 7 5 3 1 1 1 2 4 6 6 6 5 4 2 0 0 0 0 0 0 0
0 0 0 0 0 0 0 0 0 0 0 0 2 6 11 14 18 22 23 22 19 15 15 17 18 17 13 9 6 4 2 1 1 1 1 3 5 7 7 6 4 1 0 0 0 0 0 0 0
0 0 0 0 0 0 0 0 0 0 0 0 2 7 11 13 15 19 22 23 22 17 15 17 18 17 14 10 6 4 3 2 2 2 2 3 5 5 5 6 4 2 0 0 1 1 1 1 1
0 0 0 0 0 0 0 0 0 0 1 1 2 6 10 10 11 16 20 22 23 21 19 17 16 15 13 10 6 5 5 3 3 3 3 4 4 4 4 5 5 2 1 1 1 1 1 1 1
0 0 0 0 0 0 0 0 0 1 1 1 2 5 8 8 9 13 17 21 23 24 23 18 15 13 11 9 7 6 5 4 3 3 5 6 6 5 4 5 4 2 0 1 2 1 0 1 1
0 0 0 0 0 0 0 0 0 1 2 2 3 6 7 8 11 14 18 20 21 23 24 19 15 12 10 8 7 6 5 4 3 3 6 9 8 6 5 4 3 1 0 0 1 0 0 0 1
0 0 0 0 0 0 0 0 0 1 2 3 5 7 7 9 14 18 20 20 18 21 22 20 17 14 10 9 8 7 6 4 3 3 6 9 9 7 4 2 1 0 0 0 0 0 0 0 0